STARLINK-1765 (46344 NORAD) Tracking and Keplerian Element Data

This shows tracking and keplerian element data for the satellite.

Feedback or suggestion? Click here.




ElementValue
Catalog46344
NameSTARLINK-1765
Epoch Orbit177
Epoch Day267.58334491
Epoch Year2020
RAAN330.2924
Inclination53.0002
Eccentricity0.0001471
Argument of Perigee60.6443
Mean Anonmoly199.6068
Mean Motion15.62792744
Decay Rate-0.0004261
L11 46344U 20062V 20267.58334491 -.00042610 00000-0 -46121-3 0 9997
L22 46344 53.0002 330.2924 0001471 60.6443 199.6068 15.62792744 1773

Live tracking and technical data element details for STARLINK-1765 (NORAD 46344). STARLINK-1765 can be tracked NOW for your location showing map with azimuth and elevation plus other details from your city location.

Track the satellite on the map from your city or location and see movement details for azimuth, elevation, latitude, longitude, range, height, and movement on the map or in text.







IsCatalogInMostPopularTable: catalog: 46344, numindb: 3
Update: records affected: 1



GetName: 46344 STARLINK-1765

Hit Count: updated at: Thu, 24 Sep 2020 17:02:56 GMT